FENGYUN 1C DEB

Satellite information

Favourite Embed

Satellite Type and Status

DEBRISIN ORBIT

Key statistics

Satellite FENGYUN 1C DEB at a glance.

Uptime

9715

Days in orbit

Revolutions

≈ 13.7

Per day

Orbit

SSO

Sun Synchronous Orbit

Inclination

98.4

Latest

Satellite identification and parameters

Extended collection of information and parameters for FENGYUN 1C DEB.

Object identification

Identified? True

Debris? True

Object name: FENGYUN 1C DEB

International designator: 1999-025DEW

Object number (NORAD): 33661

Object ID (CCSDS): 33661

Country: PEOPLES REPUBLIC OF CHINA (PRC)

Current information (Y/N): Y

RCS size: SMALL

Orbital parameters

Period: 104.921 minutes

Inclination: 98.4118 deg

SMA: 7368.888 km

Apoapsis: 1163.014 km

Periapsis: 818.492 km

RAAN: 172.02 deg

Eccentricy: 0.02337677

Argument of periapsis: 342.6011 deg

Mean anomaly: 45.3584 deg

Mean motion: 13.72460477 rev/day

Mean motion (dot): 0.00003312 rev/day2

B* drag term: 0.0030104295 1/REarth

Two-line elements (TLE)

Creation date: Oct. 3, 2025, 6:13 p.m.

Reference frame: TEME

Reference center: EARTH

Epoch: Oct. 3, 2025, 4:01 p.m. UTC

TLE line 0: 0 FENGYUN 1C DEB

TLE line 1: 1 33661U 99025DEW 25276.66802714 .00003312 00000-0 30104-2 0 9999

TLE line 2: 2 33661 98.4118 172.0200 0233768 342.6011 45.3584 13.72460477634968

Live tracking on map

Real-time ground track for satellite FENGYUN 1C DEB.

In-orbit conjunctions

A list of the most updated potential collisions computed for object FENGYUN 1C DEB.

Target Orbit TCA Probability of collision Miss distance Type
COSMOS 465 LEO 2025-10-07 17:18:20 0.0001225072 358.0 (m) PAYLOAD
SL-14 R/B LEO 2025-03-02 03:47:41 0.0006974156 10.0 (m) ROCKET BODY

Associated space launch

Chinese polar orbiting meteorological satellite

FENGYUN 1C DEB was lifted into orbit during the mission ‘Long March 4B | Feng Yun 1C’, on board a Long March 4B space rocket.

The launch took place on May 10, 1999, 1:33 a.m. from Launch Complex 7.

For more information about the launch, click the button.

Launch to space Long March 4B | Feng Yun 1C
Long March 4B | Feng Yun 1C

Agency: N/A

Status: Launch Successful

Launch date: May 10, 1999, 1:33 a.m. UTC

Rocket: Long March 4B

Launch pad: Launch Complex 7

Location: Taiyuan Satellite Launch Center, People's Republic of China

...

Latest news about this satellite

There are no fresh news available about this satellite. Check back as we update our databases every day.


Newsletter sign-up

Weekly statistics, charts and insights to help you stay on top of the space industry.